When you browse on this site, cookies collect data to enhance your experience and personalize the content and advertising you see.
Visit our Privacy Policy to learn more. By continuing to use the site, you agree to this use of cookies and data.
  • In Österreich
  • Länderverzeichnis
  • Für 7 Tage
  • Wassertemperatur
  • Satellitenkarten
  • Wetterkarte
  • News
  • Widgets
  • user-avatar
    Anmelden

    Stündliche Wetter Baden-Baden

    Heute, 9 Dezember, Sonntag

    Zeit Temperatur Niederschläge Wind Luftdruck Luftfeuchtigkeit
    00:00 +7°C° 0.7 mm 9 m/S 721 mmHg 79%
    01:00 +7°C° 0 mm 10 m/S 720 mmHg 80%
    02:00 +7°C° 1 mm 10 m/S 720 mmHg 79%
    03:00 +7°C° 1 mm 9 m/S 720 mmHg 78%
    04:00 +6°C° 1 mm 9 m/S 720 mmHg 77%
    05:00 +6°C° 0.8 mm 9 m/S 720 mmHg 77%
    06:00 +6°C° 0.8 mm 9 m/S 721 mmHg 77%
    07:00 +5°C° 0 mm 6 m/S 721 mmHg 77%
    08:00 +5°C° 0.2 mm 7 m/S 722 mmHg 77%
    09:00 +5°C° 0.2 mm 8 m/S 722 mmHg 77%
    10:00 +5°C° 0.2 mm 8 m/S 722 mmHg 77%
    11:00 +5°C° 0.5 mm 8 m/S 722 mmHg 77%
    12:00 +5°C° 0.5 mm 9 m/S 722 mmHg 77%
    13:00 +5°C° 0 mm 8 m/S 723 mmHg 76%
    14:00 +5°C° 0.7 mm 8 m/S 723 mmHg 78%
    15:00 +5°C° 0.7 mm 8 m/S 723 mmHg 80%
    16:00 +5°C° 0.7 mm 8 m/S 723 mmHg 82%
    17:00 +5°C° 0.5 mm 7 m/S 724 mmHg 82%
    18:00 +5°C° 0.5 mm 6 m/S 725 mmHg 83%
    19:00 +5°C° 0.5 mm 6 m/S 725 mmHg 83%
    20:00 +4°C° 0.3 mm 6 m/S 726 mmHg 83%
    21:00 +5°C° 0.3 mm 5 m/S 727 mmHg 83%
    22:00 +5°C° 0.3 mm 5 m/S 728 mmHg 83%
    23:00 +3°C° 0.2 mm 5 m/S 729 mmHg 84%

    Morgen, 10 Dezember, Montag

    Zeit Temperatur Niederschläge Wind Luftdruck Luftfeuchtigkeit
    00:00 +3°C° 0.2 mm 5 m/S 730 mmHg 84%
    01:00 +3°C° 0.2 mm 5 m/S 731 mmHg 85%
    02:00 +2°C° 0.2 mm 5 m/S 731 mmHg 85%
    03:00 +2°C° 0.2 mm 5 m/S 732 mmHg 85%
    04:00 +2°C° 0.2 mm 5 m/S 732 mmHg 86%
    05:00 +2°C° 0.1 mm 5 m/S 732 mmHg 86%
    06:00 +2°C° 0.1 mm 5 m/S 733 mmHg 86%
    07:00 +2°C° 0.1 mm 5 m/S 733 mmHg 86%
    08:00 +2°C° 0.1 mm 5 m/S 733 mmHg 85%
    09:00 +2°C° 0.1 mm 5 m/S 734 mmHg 84%
    10:00 +2°C° 0.1 mm 5 m/S 734 mmHg 83%
    11:00 +2°C° 0.1 mm 5 m/S 734 mmHg 81%
    12:00 +2°C° 0.1 mm 5 m/S 734 mmHg 80%
    13:00 +3°C° 0.1 mm 5 m/S 734 mmHg 78%
    14:00 +3°C° 0.2 mm 5 m/S 734 mmHg 79%
    15:00 +3°C° 0.2 mm 5 m/S 734 mmHg 79%
    16:00 +2°C° 0.2 mm 5 m/S 734 mmHg 79%
    17:00 +2°C° 0.2 mm 5 m/S 734 mmHg 80%
    18:00 +2°C° 0.2 mm 5 m/S 734 mmHg 81%
    19:00 +2°C° 0.2 mm 5 m/S 734 mmHg 82%
    20:00 +1°C° 0.5 mm 5 m/S 734 mmHg 82%
    21:00 +1°C° 0.5 mm 4 m/S 734 mmHg 83%
    22:00 +1°C° 0.5 mm 4 m/S 735 mmHg 84%
    23:00 0°C° 0.2 mm 4 m/S 735 mmHg 86%

    übermorgen, 11 Dezember, Dienstag

    Zeit Temperatur Niederschläge Wind Luftdruck Luftfeuchtigkeit
    00:00 +1°C° 0.2 mm 3 m/S 735 mmHg 88%
    01:00 0°C° 0.2 mm 3 m/S 735 mmHg 90%
    02:00 0°C° 0 mm 3 m/S 735 mmHg 91%
    03:00 0°C° 0 mm 3 m/S 735 mmHg 91%
    04:00 0°C° 0 mm 3 m/S 734 mmHg 92%
    05:00 0°C° 0 mm 3 m/S 734 mmHg 91%
    06:00 0°C° 0 mm 3 m/S 734 mmHg 91%
    07:00 0°C° 0 mm 3 m/S 734 mmHg 91%
    08:00 0°C° 0.1 mm 3 m/S 735 mmHg 89%
    09:00 +1°C° 0.1 mm 3 m/S 735 mmHg 87%
    10:00 +1°C° 0.1 mm 3 m/S 735 mmHg 86%
    11:00 +2°C° 0.1 mm 3 m/S 735 mmHg 82%
    12:00 +2°C° 0.1 mm 3 m/S 735 mmHg 79%
    13:00 +3°C° 0.1 mm 3 m/S 734 mmHg 76%
    14:00 +2°C° 0.1 mm 3 m/S 734 mmHg 77%
    15:00 +2°C° 0.1 mm 3 m/S 734 mmHg 78%
    16:00 +3°C° 0.1 mm 2 m/S 734 mmHg 80%
    17:00 +2°C° 0 mm 2 m/S 734 mmHg 82%
    18:00 +2°C° 0 mm 2 m/S 734 mmHg 84%
    19:00 +1°C° 0 mm 2 m/S 734 mmHg 86%
    20:00 +1°C° 0 mm 2 m/S 734 mmHg 87%
    21:00 -1°C° 0 mm 2 m/S 734 mmHg 87%
    22:00 +1°C° 0 mm 1 m/S 734 mmHg 88%
    23:00 0°C° 0 mm 1 m/S 734 mmHg 88%

    12 Dezember, Mittwoch

    Zeit Temperatur Niederschläge Wind Luftdruck Luftfeuchtigkeit
    00:00 0°C° 0 mm 1 m/S 734 mmHg 89%
    01:00 0°C° 0 mm 1 m/S 734 mmHg 89%
    02:00 0°C° 0 mm 1 m/S 734 mmHg 89%
    03:00 0°C° 0 mm 1 m/S 734 mmHg 89%
    04:00 0°C° 0 mm 1 m/S 734 mmHg 89%
    05:00 0°C° 0 mm 1 m/S 734 mmHg 88%
    06:00 -1°C° 0 mm 1 m/S 734 mmHg 88%
    07:00 -1°C° 0 mm 1 m/S 734 mmHg 88%
    08:00 0°C° 0 mm 1 m/S 733 mmHg 85%
    09:00 0°C° 0 mm 0 m/S 733 mmHg 82%
    10:00 0°C° 0 mm 0 m/S 733 mmHg 79%
    11:00 +1°C° 0 mm 0 m/S 733 mmHg 76%
    12:00 +2°C° 0 mm 0 m/S 733 mmHg 72%
    13:00 +3°C° 0 mm 0 m/S 732 mmHg 68%
    14:00 +3°C° 0 mm 1 m/S 732 mmHg 72%
    15:00 +3°C° 0 mm 1 m/S 731 mmHg 76%
    16:00 +2°C° 0 mm 1 m/S 731 mmHg 80%
    17:00 +1°C° 0 mm 1 m/S 731 mmHg 83%
    18:00 +1°C° 0 mm 1 m/S 731 mmHg 86%
    19:00 0°C° 0 mm 1 m/S 731 mmHg 89%
    20:00 0°C° 0 mm 1 m/S 731 mmHg 89%
    21:00 0°C° 0 mm 1 m/S 731 mmHg 90%
    22:00 0°C° 0 mm 1 m/S 731 mmHg 90%
    23:00 -1°C° 0 mm 1 m/S 731 mmHg 90%

    13 Dezember, Donnerstag

    Zeit Temperatur Niederschläge Wind Luftdruck Luftfeuchtigkeit
    00:00 -1°C° 0 mm 1 m/S 731 mmHg 90%
    01:00 -1°C° 0 mm 1 m/S 730 mmHg 90%
    02:00 -1°C° 0 mm 1 m/S 730 mmHg 90%
    03:00 -1°C° 0 mm 1 m/S 730 mmHg 90%
    04:00 -1°C° 0 mm 1 m/S 730 mmHg 90%
    05:00 -1°C° 0 mm 1 m/S 729 mmHg 89%
    06:00 -1°C° 0 mm 1 m/S 729 mmHg 89%
    07:00 -1°C° 0 mm 1 m/S 729 mmHg 89%
    08:00 -1°C° 0 mm 1 m/S 729 mmHg 85%
    09:00 0°C° 0 mm 1 m/S 728 mmHg 82%
    10:00 -2°C° 0 mm 2 m/S 728 mmHg 78%
    11:00 -1°C° 0 mm 2 m/S 728 mmHg 75%
    12:00 +1°C° 0 mm 2 m/S 728 mmHg 72%
    13:00 +2°C° 0 mm 2 m/S 727 mmHg 69%
    14:00 +2°C° 0.1 mm 2 m/S 727 mmHg 72%
    15:00 +1°C° 0.1 mm 2 m/S 726 mmHg 76%
    16:00 +1°C° 0.1 mm 2 m/S 726 mmHg 79%
    17:00 +2°C° 0.2 mm 1 m/S 726 mmHg 81%
    18:00 +2°C° 0.2 mm 1 m/S 725 mmHg 84%
    19:00 +2°C° 0.2 mm 1 m/S 725 mmHg 86%
    20:00 +2°C° 0.5 mm 1 m/S 725 mmHg 87%
    21:00 +2°C° 0.5 mm 1 m/S 726 mmHg 88%
    22:00 +2°C° 0.5 mm 1 m/S 726 mmHg 90%
    23:00 +1°C° 0.3 mm 2 m/S 726 mmHg 90%

    14 Dezember, Freitag

    Zeit Temperatur Niederschläge Wind Luftdruck Luftfeuchtigkeit
    00:00 +1°C° 0.3 mm 2 m/S 726 mmHg 91%
    01:00 +1°C° 0.3 mm 2 m/S 726 mmHg 92%
    02:00 +2°C° 0.3 mm 2 m/S 727 mmHg 92%
    03:00 +2°C° 0.3 mm 2 m/S 727 mmHg 93%
    04:00 +2°C° 0.3 mm 2 m/S 727 mmHg 93%
    05:00 +2°C° 0.2 mm 2 m/S 727 mmHg 93%
    06:00 +2°C° 0.2 mm 2 m/S 728 mmHg 93%
    07:00 +2°C° 0.2 mm 2 m/S 728 mmHg 93%
    08:00 +1°C° 0.1 mm 3 m/S 728 mmHg 92%
    09:00 +1°C° 0.1 mm 3 m/S 728 mmHg 91%
    10:00 +2°C° 0.1 mm 3 m/S 729 mmHg 90%
    11:00 +2°C° 0 mm 3 m/S 728 mmHg 88%
    12:00 +3°C° 0 mm 3 m/S 728 mmHg 85%
    13:00 +4°C° 0 mm 3 m/S 727 mmHg 83%
    14:00 +4°C° 0 mm 2 m/S 727 mmHg 85%
    15:00 +3°C° 0 mm 2 m/S 726 mmHg 86%
    16:00 +4°C° 0 mm 1 m/S 726 mmHg 88%
    17:00 +3°C° 0.1 mm 2 m/S 726 mmHg 87%
    18:00 +2°C° 0.1 mm 2 m/S 725 mmHg 87%
    19:00 +2°C° 0.1 mm 2 m/S 725 mmHg 87%
    20:00 +2°C° 0.5 mm 2 m/S 725 mmHg 86%
    21:00 +1°C° 0.5 mm 3 m/S 724 mmHg 86%
    22:00 +2°C° 0.5 mm 3 m/S 724 mmHg 85%
    23:00 +2°C° 0.2 mm 3 m/S 724 mmHg 85%
    Mehr zeigen